EW9827 Weather Reports


Display with metric or nautical units.
time (UTC)temp
F
wind
direction
speed
MPH
gust
MPH
rain 1hr
in
rain 24hr
in
rain mn
in
humidity
%
barometer
mb
20180926064641 65 169 2.0 7.0 0.00 0.63 0.00 96 1015.7
20180926063125 65 146 1.0 6.0 0.00 0.63 0.00 97 1015.8
20180926061604 65 131 2.0 6.0 0.00 0.63 0.00 97 1016.0
20180926060122 65 122 1.0 5.0 0.00 0.63 0.00 97 1016.3
20180926054619 65 91 1.0 5.0 0.00 0.70 0.00 98 1016.4
20180926053101 65 163 2.0 7.0 0.00 0.70 0.00 98 1016.5
20180926051601 64 158 2.0 5.0 0.00 0.70 0.00 98 1016.6
20180926050100 65 104 0.0 5.0 0.00 0.70 0.00 98 1016.8
20180926044626 65 198 1.0 4.0 0.00 0.70 0.00 98 1017.3
20180926043047 65 128 1.0 4.0 0.00 0.70 0.00 98 1017.3
20180926041604 65 119 1.0 4.0 0.00 0.70 0.00 98 1017.5
20180926040049 65 134 1.0 7.0 0.00 0.70 0.00 98 1017.6
20180926034539 65 137 0.0 5.0 0.00 0.78 0.70 98 1017.7
20180926033051 65 132 1.0 5.0 0.00 0.78 0.70 98 1017.7
20180926031544 65 150 2.0 0.0 0.00 0.00 0.70 98 1017.7
20180926030117 65 129 0.0 4.0 0.00 0.78 0.70 98 1017.8
20180926024544 65 180 2.0 7.0 0.00 0.82 0.70 98 1017.8
20180926023216 65 117 2.0 8.0 0.00 0.82 0.70 98 1017.9
20180926021536 65 240 2.0 9.0 0.00 0.82 0.70 98 1018.0
20180926020057 65 110 3.0 7.0 0.00 0.82 0.70 98 1017.9
20180926014542 65 146 3.0 11.0 0.00 0.86 0.70 98 1018.0
20180926013041 65 130 2.0 9.0 0.00 0.86 0.70 98 1018.3
20180926011626 65 146 2.0 10.0 0.00 0.86 0.70 98 1018.4
20180926010040 65 151 2.0 7.0 0.00 0.86 0.70 98 1018.4
20180926004530 65 137 2.0 9.0 0.00 0.93 0.70 98 1018.4
20180926003053 65 143 2.0 11.0 0.00 0.93 0.70 98 1018.5
20180926001536 65 86 0.0 9.0 0.01 0.93 0.70 98 1018.6
20180926000033 65 251 4.0 10.0 0.01 0.93 0.70 99 1018.6
20180925234529 64 8 2.0 6.0 0.01 0.94 0.70 98 1018.5
20180925233039 64 143 1.0 6.0 0.01 0.94 0.70 98 1018.6
20180925231528 64 110 1.0 5.0 0.00 0.93 0.69 98 1018.4
20180925230028 64 113 2.0 6.0 0.00 0.93 0.69 98 1018.5
20180925224533 64 117 1.0 5.0 0.01 0.95 0.69 98 1018.8
20180925223024 64 150 2.0 9.0 0.01 0.95 0.69 98 1019.0
20180925221520 64 123 3.0 8.0 0.02 0.95 0.69 98 1019.2
20180925220034 64 150 2.0 5.0 0.02 0.95 0.69 98 1019.4
20180925214542 63 150 1.0 4.0 0.01 0.94 0.68 98 1019.3
20180925213013 63 103 1.0 6.0 0.01 0.94 0.68 98 1019.5
20180925211517 63 117 1.0 4.0 0.00 0.93 0.67 98 1019.7
20180925210028 63 130 0.0 5.0 0.00 0.93 0.67 98 1019.7
20180925204514 63 148 2.0 5.0 0.00 0.93 0.67 98 1019.8
20180925203027 63 127 3.0 5.0 0.00 0.93 0.67 98 1019.8
20180925201509 63 99 2.0 4.0 0.00 0.93 0.67 98 1019.8
20180925200022 63 125 0.0 4.0 0.00 0.93 0.67 98 1020.1
20180925194510 63 162 1.0 4.0 0.00 0.93 0.67 98 1020.4
20180925193006 62 204 1.0 4.0 0.00 0.93 0.67 98 1020.6
20180925191507 62 131 2.0 6.0 0.00 0.93 0.67 98 1020.4
20180925190121 62 175 3.0 7.0 0.00 0.93 0.67 98 1020.4
20180925184632 61 131 1.0 4.0 0.00 0.93 0.67 98 1020.5
20180925183112 61 115 1.0 5.0 0.00 0.93 0.67 98 1021.0
20180925181757 61 133 2.0 5.0 0.00 0.93 0.67 98 1021.4
20180925180058 60 149 2.0 6.0 0.00 0.93 0.67 98 1021.6
20180925174624 60 141 1.0 7.0 0.00 0.93 0.67 98 1021.9
20180925173128 60 122 4.0 10.0 0.00 0.93 0.67 98 1021.9
20180925171604 59 191 4.0 10.0 0.00 0.93 0.67 98 1022.1
20180925170049 59 92 3.0 8.0 0.01 0.93 0.67 98 1022.0
20180925164613 59 130 3.0 6.0 0.01 0.93 0.67 98 1022.1
20180925163042 58 113 2.0 8.0 0.01 0.93 0.67 98 1022.1
20180925161541 58 139 2.0 8.0 0.01 0.93 0.67 98 1022.2
20180925160035 58 128 2.0 7.0 0.00 0.92 0.66 98 1022.5
20180925154533 57 141 2.0 6.0 0.00 0.92 0.66 98 1022.9
20180925153041 57 143 3.0 8.0 0.01 0.92 0.66 98 1023.1
20180925151529 56 136 2.0 7.0 0.01 0.92 0.66 98 1023.2
20180925150051 56 123 3.0 8.0 0.01 0.92 0.66 98 1023.3
20180925144530 56 155 2.0 9.0 0.02 0.92 0.66 98 1023.5
20180925143021 55 105 3.0 10.0 0.02 0.91 0.65 98 1023.7
20180925141529 55 143 4.0 8.0 0.02 0.91 0.65 98 1023.7
20180925140046 55 131 3.0 8.0 0.03 0.91 0.65 98 1023.7
20180925134524 55 90 2.0 7.0 0.03 0.90 0.64 98 1023.7
20180925133021 55 117 3.0 9.0 0.03 0.89 0.63 98 1023.7
20180925131524 54 124 2.0 6.0 0.05 0.89 0.63 98 1023.8
20180925130014 54 134 2.0 7.0 0.06 0.88 0.62 98 1023.7
20180925124522 54 124 3.0 8.0 0.07 0.87 0.61 98 1023.7
20180925123021 54 92 2.0 7.0 0.06 0.86 0.60 98 1023.8
20180925121508 54 96 2.0 8.0 0.05 0.84 0.57 98 1023.9
20180925120008 54 96 1.0 7.0 0.06 0.81 0.55 98 1024.0
20180925114510 54 162 1.0 8.0 0.07 0.80 0.54 98 1023.9
20180925113003 53 191 2.0 8.0 0.08 0.80 0.54 98 1023.9
20180925111504 53 147 3.0 8.0 0.07 0.79 0.53 98 1023.8
20180925110247 53 153 2.0 8.0 0.04 0.75 0.49 98 1024.1
20180925104634 53 146 1.0 6.0 0.04 0.73 0.47 98 1024.0
20180925103116 53 140 2.0 6.0 0.06 0.72 0.46 98 1024.0
20180925101612 53 148 4.0 10.0 0.07 0.72 0.46 98 1024.1
20180925100152 53 130 3.0 9.0 0.08 0.71 0.45 98 1024.2
20180925094655 53 134 3.0 8.0 0.09 0.69 0.43 98 1024.2
20180925093226 53 138 3.0 9.0 0.10 0.66 0.40 98 1024.4
20180925091702 53 126 3.0 8.0 0.13 0.65 0.39 98 1024.6
20180925090139 53 134 3.0 8.0 0.13 0.63 0.37 98 1024.6
20180925084629 52 161 5.0 10.0 0.13 0.60 0.34 98 1024.8
20180925083116 52 97 2.0 11.0 0.13 0.56 0.30 98 1024.8
20180925081617 52 131 3.0 10.0 0.12 0.52 0.26 98 1025.0
20180925080057 52 138 4.0 11.0 0.12 0.50 0.24 98 1024.9
20180925074601 52 115 3.0 6.0 0.10 0.47 0.21 98 1025.3
20180925073126 52 148 3.0 10.0 0.08 0.43 0.17 98 1025.4
20180925071609 52 139 3.0 7.0 0.06 0.40 0.14 97 1025.7
20180925070051 52 148 4.0 10.0 0.04 0.38 0.12 97 1026.0